Showing default

FLOCK 4H 6, 66709

Orbit data source: Space-Track

FLOCK 4H 6, 66709 is a payload satellite owned by Planet (US) in SSO that was launched on Fri, 28 Nov 2025 UTC via an FALCON 9 launch vehicle from the Air Force Western Test Range (AFWTR). Payload-class satellites include a variety of spacecraft equipped with specific instruments for various scientific and technological missions. These include communications satellites like Starlink; space stations such as the ISS; scientific satellites like the Hubble; Earth observation satellites from companies like Planet Labs, Umbra, and HawkEye 360; GPS; miniature CubeSats for education and research; and military/defense satellites.

Loading next visibility...
Identifier
66709, 2025-276AV
Orbit
SSO
Country
Flag of USUS
Related business
Manufacturer
Planet
Mission
Operational Commercial Imaging
Bus & Motor
CUBESAT 3U, Unknown motor
Mass
5.7 kg wet, 5.7 kg dry
Launch date (UTC)
2025-11-28 (2 months ago)
Launch vehicle
FALCON 9
Launch site
Air Force Western Test Range (AFWTR)
Object type
Payload
Rocket body
Debris
Shape & HBR
Box + 2 Pan, 1.0 m
Radar Cross Section
0.072 m²

Expand to show TLE details & history
Last TLE update: 21 hours ago

TLE from 21 hours ago
0 FLOCK 4H 6
1 66709U 25276AV  26034.19946063  .00006586  00000-0  32189-3 0  9994
2 66709  97.4371 110.1177 0004631  87.0859 273.0905 15.18559346 10082
Epoch: 2026-02-03T04:47Z
TLE epoch observation values (Epoch: 2026-02-03T04:47:13.398Z)
Latitude
-0.00004°
Longitude
-95.07194°
Altitude
513.111 km
Speed
7.607 km/s
True Right ascension
07h 20m 28s
True Declination
0° 00' 00"
Sunlit
Object was in full shadow at epoch
Visualization orbit readout
Latitude
Unknown
Longitude
Unknown
Altitude
Unknown
Speed
Unknown
Apparent Right ascension
Unknown
Apparent Declination
Unknown
Sunlit
N/A
Visualization observer readout
Local Sidereal Time
04:09:57
Azimuth
Unknown
Elevation
Unknown
Doppler factor
Unknown
Orbital elements
Apogee altitude
510.351 km
Perigee altitude
503.974 km
Semi-major axis
6,885.3 km
Eccentricity
0.00046
Inclination
97.4371°
RAAN
110.1177°
Arg. of periapsis
87.0859°
True anomaly
273.03751°
Mean anomaly
273.0905°
Eccentric anomaly
273.064°
Mean motion
3.79891 °/min
Orbital period
94.76 mins
BSTAR
0.00032189
Loading maneuver chart data...
Computing Atmospheric mass density...
Loading historical data...
Loading historical data...
Loading historical data...
Loading historical data...
Loading historical data...
Loading historical data...
Loading historical data...

Documentation

Showing up to 5 results
|